Lapse_Rate
7.5 7.1 6.6 6.5 6.5 6.4 6.2 6.0 5.4 5.1 5.4 5.5 5.4 5.1 5.1 5.4 5.6 5.8 6.0 5.9 6.2 6.2 6.0 5.7 5.9 5.7 5.7 5.6 5.6 5.5 5.5 5.7 5.8 5.9 5.9 5.9 5.8 5.8 5.8 5.7 5.7 5.7 5.6
7.6 7.1 6.5 6.3 6.6 6.5 6.0 5.9 5.7 5.4 5.3 5.3 5.1 5.2 5.2 4.9 5.3 5.6 5.7 5.9 5.9 5.9 5.8 5.9 5.8 5.9 5.9 5.6 5.6 5.6 5.6 5.8 5.8 5.9 5.9 5.9 5.9 5.8 5.8 5.8 5.8 5.8 5.7
7.3 7.0 6.6 6.3 6.4 6.4 5.9 5.8 5.9 5.8 5.7 5.3 5.3 5.3 4.7 4.6 5.2 5.5 5.8 6.2 6.2 6.2 6.0 5.9 5.9 5.9 5.9 6.0 5.9 5.8 5.8 5.7 5.7 5.9 5.9 5.8 5.8 5.9 5.8 5.7 5.8 6.0 6.0
6.8 6.5 6.3 6.2 6.2 6.4 6.1 5.9 5.9 5.9 5.4 5.4 5.0 4.8 4.8 4.9 5.2 5.5 5.9 6.3 6.5 6.4 6.2 6.1 6.0 5.8 5.8 5.9 5.9 6.0 5.9 5.9 5.8 5.8 5.8 5.8 5.9 5.9 5.8 5.8 5.7 5.7 5.9
6.5 5.8 5.8 5.7 5.9 5.8 5.5 5.6 6.0 5.8 5.5 5.2 4.9 5.1 4.9 5.0 5.3 5.6 6.0 6.2 6.4 6.2 6.3 6.3 6.2 6.1 6.0 5.9 6.0 5.9 5.8 5.9 6.0 6.0 6.0 6.1 6.2 6.0 5.8 5.8 5.7 5.8 5.8
6.2 5.3 5.3 5.4 6.0 5.3 5.4 4.7 4.7 5.0 4.9 5.0 4.8 5.2 4.9 5.1 5.5 5.9 6.1 6.2 6.3 6.1 6.0 6.1 6.1 6.1 6.1 6.1 6.2 6.1 6.0 5.9 6.0 6.0 5.9 6.1 6.1 6.0 5.9 5.9 5.9 5.9 6.0
6.2 5.9 5.2 5.3 5.3 5.3 5.2 4.7 4.4 4.5 4.7 4.8 4.8 5.0 5.2 5.4 5.7 6.0 6.2 6.2 6.0 6.1 6.0 6.0 5.9 5.9 6.1 6.1 6.1 6.1 6.0 6.1 6.1 6.1 6.1 6.2 6.1 6.0 6.0 6.1 6.1 6.0 5.9
6.1 6.0 5.6 5.4 5.3 5.4 5.3 5.2 4.7 4.4 4.5 4.9 5.2 5.4 5.6 5.8 5.8 6.1 6.1 5.9 6.0 6.0 6.0 5.9 6.0 6.0 6.1 6.1 6.2 6.2 6.1 6.1 6.1 6.1 6.1 6.1 6.1 6.1 6.1 5.9 5.9 5.8 5.9
6.1 5.9 5.6 5.4 5.2 5.2 5.1 5.2 5.3 5.1 5.2 5.6 5.6 5.7 5.8 5.9 6.1 6.2 6.1 6.0 6.1 5.9 5.9 5.9 5.9 6.1 6.1 6.1 6.1 6.1 6.1 6.0 6.0 6.0 6.1 6.1 6.2 6.1 6.0 6.0 6.0 5.9 5.7
5.8 5.8 5.3 5.3 5.2 5.0 5.6 5.7 5.4 5.4 5.3 5.3 5.7 5.7 5.8 5.9 6.2 6.0 6.1 6.1 6.0 5.9 5.9 6.0 6.1 6.1 6.1 6.1 6.2 6.2 6.1 6.0 6.1 6.0 6.0 6.0 6.0 6.0 6.0 6.0 6.0 6.0 5.9
6.1 5.9 5.4 5.2 5.3 5.2 5.4 5.3 5.3 5.1 5.8 5.7 5.8 6.1 6.0 5.9 5.9 6.0 6.0 5.9 5.9 5.9 6.0 6.0 6.0 5.9 6.1 6.1 6.0 6.0 6.0 6.0 5.9 5.9 5.9 5.9 6.0 6.0 5.9 6.0 6.1 6.1 6.1
5.9 6.1 6.2 5.9 5.7 5.3 5.4 5.4 5.7 5.7 5.8 5.6 5.6 5.6 5.8 5.9 5.8 5.8 6.0 5.8 5.9 5.9 6.0 6.0 6.0 5.9 5.9 5.9 5.8 5.8 5.8 5.8 5.8 5.9 6.0 5.9 6.0 6.0 6.1 6.1 6.1 6.0 6.0
5.9 5.8 5.9 5.9 5.7 5.6 5.4 5.4 5.4 5.4 5.5 5.5 5.5 5.5 5.5 5.7 5.7 5.8 5.8 5.8 5.9 6.0 6.0 6.0 5.9 6.0 6.0 5.8 5.7 5.7 5.7 5.7 5.8 5.8 5.8 5.8 5.9 6.1 6.3 6.3 6.3 6.2 6.1
6.4 6.1 5.9 5.8 5.7 5.6 5.5 5.4 5.5 5.5 5.5 5.5 5.5 5.5 5.6 5.5 5.7 5.8 5.8 5.7 6.0 6.0 5.9 5.9 5.9 5.8 5.8 5.8 5.7 5.7 5.6 5.7 5.8 5.8 5.9 6.0 6.0 6.2 6.3 6.3 6.3 6.2 6.1
6.8 6.4 6.2 6.0 5.8 5.6 5.4 5.5 5.5 5.4 5.4 5.3 5.2 5.2 5.3 5.5 5.7 5.7 5.8 5.8 5.8 5.8 5.8 5.8 5.8 5.8 5.8 5.8 5.8 5.8 5.7 5.8 5.8 6.0 6.0 6.0 6.0 6.1 6.2 6.3 6.4 6.4 6.3
6.5 6.6 6.5 6.3 6.1 5.8 5.8 5.5 5.6 5.5 5.5 5.3 5.2 5.2 5.1 5.4 5.6 5.7 5.7 5.8 5.9 5.9 5.9 5.9 5.8 5.7 5.7 5.6 5.6 5.6 5.7 5.7 5.7 5.8 5.8 5.9 6.0 6.1 6.1 6.2 6.3 6.4 6.4
6.2 6.1 6.2 6.2 6.1 5.9 5.6 5.5 5.6 5.4 5.4 5.1 5.3 5.2 5.2 5.4 5.5 5.6 5.6 5.7 5.8 5.8 5.7 5.6 5.5 5.5 5.5 5.5 5.4 5.3 5.4 5.5 5.6 5.7 5.8 5.8 5.9 6.0 6.2 6.2 6.3 6.4 6.5
6.5 6.3 6.1 6.1 6.0 6.1 5.8 5.4 5.6 5.3 5.2 4.9 5.0 5.0 5.0 5.4 5.4 5.4 5.5 5.5 5.4 5.4 5.4 5.4 5.5 5.4 5.3 5.3 5.2 5.3 5.4 5.6 5.6 5.7 5.7 5.8 5.9 6.0 6.2 6.3 6.3 6.4 6.5
6.4 6.2 6.3 6.2 6.1 5.9 5.7 5.6 5.6 5.5 5.4 5.2 5.2 5.1 5.0 5.1 5.2 5.2 5.3 5.3 5.4 5.4 5.3 5.2 5.1 5.2 5.2 5.1 5.1 5.2 5.4 5.6 5.6 5.7 5.8 5.8 5.9 5.9 6.1 6.2 6.2 6.3 6.4
6.2 6.3 6.3 6.2 6.1 5.9 5.8 5.7 5.7 5.8 5.7 5.8 5.3 5.0 5.0 4.9 5.1 5.0 5.0 5.0 5.1 5.2 5.2 5.2 5.0 5.1 4.9 5.0 5.1 5.1 5.3 5.4 5.4 5.6 5.6 5.6 5.6 5.7 5.8 6.0 6.1 6.3 6.3
6.2 6.1 6.3 6.4 6.1 5.8 5.9 5.9 5.9 5.7 5.5 5.3 5.3 5.3 5.2 5.0 5.0 5.0 5.1 5.1 5.1 5.1 5.0 5.2 5.0 5.0 4.9 4.8 4.8 4.9 4.9 5.0 5.2 5.2 5.3 5.4 5.5 5.5 5.7 5.8 6.0 6.1 6.1
6.4 6.4 6.0 6.1 6.2 6.2 5.9 5.6 5.5 5.2 5.2 4.9 5.0 5.2 5.0 4.6 4.7 4.7 4.7 4.8 5.0 5.1 5.1 4.8 4.7 4.7 4.6 4.6 4.6 4.7 4.8 4.9 5.0 5.1 5.3 5.5 5.4 5.4 5.5 5.6 5.6 5.7 5.8
6.7 6.6 6.3 6.0 5.8 5.8 5.7 5.5 5.3 5.0 5.1 5.4 5.5 5.1 4.7 4.1 4.3 4.4 4.5 4.6 4.7 4.8 4.7 4.6 4.6 4.4 4.4 4.4 4.4 4.5 4.6 4.8 4.9 5.0 5.2 5.3 5.3 5.3 5.2 5.3 5.3 5.4 5.4
6.8 6.5 6.3 6.0 5.9 5.7 5.6 5.4 5.2 5.0 4.8 4.8 4.4 4.0 4.1 3.7 3.6 3.8 3.9 4.2 4.4 4.5 4.5 4.4 4.4 4.5 4.4 4.4 4.5 4.4 4.5 4.6 4.7 4.9 5.1 5.2 5.2 5.2 5.1 5.0 5.0 5.0 5.2
6.5 6.6 6.5 6.3 5.9 5.7 5.7 5.3 4.9 4.6 4.5 4.4 3.9 3.6 3.4 3.3 3.5 3.6 3.7 3.9 4.0 4.2 4.2 4.3 4.4 4.4 4.3 4.3 4.3 4.3 4.4 4.5 4.6 4.9 5.4 5.3 5.2 5.0 4.9 4.8 4.8 4.8 4.9
6.3 6.2 6.2 6.2 6.1 6.0 5.5 5.3 5.1 4.8 4.5 4.0 3.9 3.7 3.6 3.4 3.2 3.2 3.4 3.4 3.6 3.9 4.1 4.2 4.3 4.4 4.4 4.3 4.3 4.3 4.4 4.5 4.7 4.9 5.3 5.6 5.6 5.4 4.9 4.8 4.7 4.9 5.0
Wind_Speed
2 5 8 8 9 9 8 9 11 12 14 16 18 19 17 19 20 18 18 18 20 21 20 18 18 20 19 19 20 21 22 22 22 21 20 19 19 19 19 19 18 19 19
5 6 8 11 13 12 12 12 13 13 16 19 20 19 19 19 19 21 20 21 21 22 21 17 18 18 18 18 19 20 20 20 20 20 18 19 20 20 18 18 18 18 18
4 7 10 3 11 13 15 13 14 14 20 25 22 22 20 19 18 19 19 20 20 20 19 18 18 18 18 19 20 21 20 20 20 19 17 17 19 21 22 21 18 17 16
5 7 4 17 8 5 12 14 19 20 24 26 23 23 19 17 18 18 18 19 19 19 18 18 19 19 20 20 19 20 20 21 21 19 17 16 18 20 20 20 19 20 15
3 7 9 15 19 22 24 20 28 28 23 24 23 23 19 17 18 18 18 19 19 18 18 18 19 20 21 20 20 21 20 20 21 20 19 20 17 20 21 20 18 18 21
4 6 11 15 17 21 22 20 24 21 20 22 23 22 19 18 17 18 19 19 19 18 18 19 19 19 20 20 20 20 20 19 18 18 19 20 19 19 18 18 18 17 18
4 6 9 14 17 18 22 22 21 18 17 22 22 19 19 18 17 18 18 19 18 18 17 18 18 18 19 19 20 20 18 19 16 17 17 17 17 15 16 16 16 16 16
5 5 8 12 15 18 20 19 20 19 18 19 20 19 19 18 17 18 18 18 18 18 17 17 18 18 19 19 19 20 19 16 15 14 14 14 14 14 15 15 16 16 15
7 6 7 7 10 16 17 18 19 18 20 18 18 19 18 18 17 17 17 18 19 18 17 17 17 18 19 19 19 19 19 17 14 12 11 11 12 12 13 13 13 13 13
6 7 7 7 11 10 14 16 18 17 20 19 17 20 18 20 17 17 17 17 18 17 17 17 17 18 18 19 18 18 16 15 13 11 11 11 12 12 12 12 12 12 13
7 6 8 9 9 11 12 15 17 18 18 18 17 17 15 14 15 17 18 17 16 17 17 17 17 17 17 19 17 16 15 12 10 11 10 10 11 11 11 12 12 11 11
11 10 7 9 10 11 11 13 14 15 13 14 12 13 12 14 16 18 17 16 16 16 17 17 17 16 14 12 11 13 12 10 10 9 11 10 10 11 12 13 15 15 14
9 7 9 9 11 11 10 9 10 10 10 11 12 12 12 12 12 11 12 9 9 13 10 12 12 12 13 11 11 11 10 10 9 9 13 12 13 15 17 17 17 17 15
12 10 9 10 10 10 10 8 10 10 9 10 12 12 12 10 10 10 10 9 9 9 10 10 10 11 12 12 11 11 11 10 8 9 12 14 14 17 18 17 17 16 15
13 12 11 9 9 11 12 11 11 11 10 11 11 11 11 11 10 10 10 9 9 8 8 9 9 10 9 10 11 11 11 12 11 10 12 17 17 17 16 15 15 15 15
13 12 11 11 11 14 9 11 10 12 12 11 11 11 10 11 10 10 9 9 9 8 7 9 9 8 8 8 10 10 10 10 10 11 10 13 16 15 16 16 16 15 14
13 11 13 12 12 11 12 12 11 10 11 10 10 11 11 11 11 10 9 8 8 8 8 8 8 8 8 7 8 8 7 9 10 10 9 9 10 14 16 16 17 16 15
13 15 13 11 12 11 9 11 12 12 11 10 12 11 11 11 11 9 8 7 7 8 7 8 5 5 5 5 4 4 5 5 6 8 9 8 10 9 11 17 16 15 14
15 15 15 14 15 13 12 12 12 12 10 9 10 10 11 11 11 11 9 8 8 8 8 6 5 4 5 4 4 4 3 5 4 6 8 9 10 10 11 14 17 15 16
15 15 14 12 14 14 10 9 9 8 9 9 9 10 11 10 11 10 9 9 8 8 5 5 5 5 4 3 4 4 3 4 4 5 6 7 8 9 13 13 13 12 15
14 15 18 17 15 13 10 10 7 6 6 5 9 13 12 11 11 10 9 9 8 7 5 3 2 6 7 5 2 3 3 3 2 2 2 4 7 7 12 13 11 11 12
17 18 18 19 19 15 11 8 5 7 5 6 9 11 13 12 11 9 8 7 8 5 6 6 4 2 4 7 3 1 1 3 2 1 1 2 5 5 11 12 10 13 11
16 18 17 18 18 15 15 9 8 7 7 4 6 6 9 14 11 11 9 9 8 7 5 5 6 5 3 4 8 3 0 1 3 1 2 2 4 5 12 13 12 12 12
13 12 14 15 16 14 16 12 15 10 11 5 6 6 8 14 13 12 10 9 9 7 5 5 5 5 3 4 3 5 4 3 2 2 1 1 3 9 6 10 12 10 10
7 9 10 13 15 16 16 14 11 10 5 7 7 10 8 9 12 12 10 10 9 7 6 5 5 5 4 3 3 2 2 2 2 1 4 4 5 3 7 10 9 9 10
5 7 9 11 12 14 16 14 14 13 12 10 8 7 6 5 7 10 11 9 8 7 6 5 5 4 4 4 3 2 1 0 0 1 3 5 8 4 8 7 8 9 10
Wind_Direction
22 322 306 289 276 211 193 170 164 149 138 127 114 110 108 97 100 95 90 88 90 95 82 77 73 76 70 76 83 83 80 75 72 70 68 70 69 69 66 66 67 64 61
286 307 298 277 259 206 197 174 148 154 146 128 118 109 102 92 87 86 85 83 86 83 84 77 72 76 75 79 81 83 77 73 69 63 58 71 70 71 66 61 58 67 61
302 318 301 298 209 202 194 174 147 143 160 117 101 92 88 84 85 82 80 78 77 81 82 83 82 78 73 78 83 80 76 70 63 60 60 71 68 64 65 65 64 60 64
294 338 91 52 135 124 204 195 155 134 103 102 103 99 95 98 94 92 91 91 88 86 83 82 81 77 74 77 81 81 73 68 61 57 62 67 74 70 66 62 62 65 63
1 8 92 85 83 76 71 85 143 106 107 105 105 100 100 97 95 95 92 91 88 86 83 79 76 75 75 75 78 79 72 65 61 61 58 59 63 66 59 55 59 55 53
36 15 94 91 91 93 92 90 87 98 112 110 102 101 103 101 101 99 95 91 88 84 83 79 74 73 73 72 72 71 68 62 63 58 53 55 61 60 57 52 52 52 48
63 9 99 105 97 100 99 105 104 107 109 107 106 113 111 108 105 101 95 90 88 85 80 80 77 74 71 71 70 69 67 63 66 59 52 53 56 58 59 56 54 52 49
106 40 87 99 110 111 109 117 117 121 117 110 116 115 109 106 104 98 94 92 86 81 80 77 76 73 72 69 68 67 65 64 66 62 54 53 50 52 48 47 49 47 47
115 99 62 80 109 108 120 120 121 123 115 113 114 110 108 103 98 93 89 86 84 81 79 76 74 73 72 69 67 66 63 62 67 60 53 50 44 50 51 47 43 45 43
126 117 90 67 98 88 122 122 118 116 113 113 111 108 105 101 94 91 86 83 83 84 80 78 74 72 72 68 64 60 61 58 60 57 49 46 47 49 49 48 48 45 42
150 137 127 102 77 91 80 114 117 119 112 112 110 102 93 89 87 87 84 84 83 82 81 76 73 74 73 68 63 62 61 49 46 48 48 44 53 53 50 50 47 50 51
174 156 145 135 125 108 102 99 93 95 100 103 106 105 97 86 90 90 85 84 81 80 76 75 74 66 62 64 54 52 59 64 61 46 45 48 67 74 74 71 65 57 56
176 164 158 149 138 127 122 116 111 112 113 114 116 107 104 97 95 95 88 77 78 71 70 66 64 63 61 60 59 61 63 63 65 58 54 48 61 68 72 68 66 56 48
177 176 168 157 146 132 125 126 127 126 138 132 124 124 117 110 104 96 95 87 79 69 73 67 66 66 67 63 59 66 64 65 70 69 59 60 69 70 66 66 59 54 47
188 180 173 157 151 149 142 145 142 142 142 136 127 126 131 126 119 112 102 95 86 83 77 76 66 65 67 68 63 67 70 67 68 67 64 62 71 65 61 59 56 51 45
189 187 170 165 158 153 147 151 151 146 141 144 138 136 132 121 119 114 110 102 89 78 74 73 64 60 65 67 66 66 73 68 72 74 73 70 65 63 61 53 44 38 31
195 176 176 165 159 156 153 155 145 143 142 141 128 132 129 125 128 123 119 107 97 83 78 79 64 58 57 68 62 63 79 74 75 73 71 74 66 56 56 43 31 28 23
181 179 169 168 161 152 150 146 146 148 146 146 140 137 132 127 127 117 103 92 98 91 77 64 51 52 52 63 67 70 87 95 80 78 77 74 63 51 47 35 28 22 17
187 176 171 161 162 155 148 143 142 137 136 140 131 131 134 133 131 125 119 113 103 92 76 71 57 42 35 55 76 85 95 90 87 73 85 70 55 53 36 20 18 21 11
179 178 172 164 160 153 141 133 131 135 135 138 139 140 137 134 124 116 112 105 97 83 68 68 79 66 51 58 85 85 82 92 97 74 95 64 56 50 26 21 10 8 2
179 178 176 167 165 155 156 152 154 161 148 145 144 142 140 135 128 122 113 105 98 92 83 66 83 46 43 28 122 109 95 173 120 60 125 50 40 27 15 12 6 358 348
183 182 181 180 170 170 167 163 158 149 150 145 142 139 141 137 130 123 123 115 109 107 86 69 60 93 57 32 47 91 145 173 216 61 83 30 15 354 358 0 356 349 346
189 189 186 180 174 171 162 141 123 104 108 125 150 144 144 139 136 135 131 124 110 103 90 73 60 66 76 58 47 28 33 349 321 159 208 322 341 346 342 347 346 342 338
204 189 182 175 173 167 161 160 163 165 164 170 156 146 140 142 141 135 128 117 104 101 100 96 82 77 86 64 64 49 59 30 342 303 174 337 348 334 334 331 329 328 327
185 191 182 171 171 166 167 166 162 157 139 134 135 135 132 132 138 136 130 122 115 109 107 108 100 85 73 84 67 77 65 57 45 297 293 319 323 318 309 314 310 322 327
143 156 166 172 176 169 172 166 165 152 141 140 148 144 141 137 140 138 132 125 120 120 120 112 104 100 107 114 116 112 100 141 164 280 291 316 310 300 312 307 317 330 325